Regional Weather Roundup
Issued by NWS

Home | Current Version | Previous Version | Graphics & Text | Print | Product List | Glossary On
Versions: 1 2 3 4 5 6 7 8 9 10 11 12 13 14 15 16 17 18 19 20 21 22 23 24 25 26 27 28 29 30 31 32 33 34 35 36 37 38 39 40 41 42 43 44 45 46 47 48 49 50
000
ASUS43 KMKX 281611
RWRWI

WISCONSIN REGIONAL WEATHER ROUNDUP
NATIONAL WEATHER SERVICE MILWAUKEE/SULLIVAN WI
1100 AM CDT MON JUL 28 2014

NOTE: "FAIR" INDICATES FEW OR NO CLOUDS BELOW 12,000 FEET WITH NO
SIGNIFICANT WEATHER AND/OR OBSTRUCTIONS TO VISIBILITY.

WIZ001-002-006>008-014>016-023>028-281700-
NORTHWEST WISCONSIN

CITY           SKY/WX    TMP DP  RH WIND       PRES   REMARKS
SUPERIOR ARPT  SUNNY     71  55  56 N8        30.17S
ASHLAND        PTSUNNY   69  55  60 NW8G17    30.15F
HAYWARD        PTSUNNY   68  53  58 N7        30.18S
SIREN          SUNNY     69  55  60 NW7       30.20S
RICE LAKE      CLOUDY    67  54  61 W7        30.20F
LADYSMITH      MOSUNNY   69  53  57 NW14      30.19S
EAU CLAIRE     CLOUDY    71  51  49 N7        30.17S
MENOMONIE      CLOUDY    69  53  56 W5        30.20R
NEW RICHMOND   CLOUDY    67  56  67 N3        30.21S
OSCEOLA        CLOUDY    67  59  77 NW5       30.23S
$$

WIZ003>005-009-010-017-018-281700-
NORTH CENTRAL WISCONSIN

CITY           SKY/WX    TMP DP  RH WIND       PRES   REMARKS
WOODRUFF       MOSUNNY   69  54  57 N9        30.14R
RHINELANDER    SUNNY     65  52  62 NW13G18   30.14S
EAGLE RIVER    MOSUNNY   66  49  53 N15       30.12S
LAND O LAKES   SUNNY     67  49  51 N14G20    30.13S
PHILLIPS       MOSUNNY   66  53  64 NW7       30.15S
TOMAHAWK       SUNNY     66  52  60 N9G16     30.15S
MEDFORD        MOSUNNY   65  53  63 NW10G18   30.16S
MERRILL        SUNNY     67  54  61 NW9G18    30.13S
$$

WIZ029-030-035-036-043>047-281700-
CENTRAL WISCONSIN

CITY           SKY/WX    TMP DP  RH WIND       PRES   REMARKS
WAUSAU         SUNNY     67  51  56 NW12G23   30.12S
MOSINEE        SUNNY     66  54  63 NW10G16   30.15S
MARSHFIELD     CLOUDY    69  51  52 NW16      30.15F
STEVENS POINT  MOSUNNY   64  50  60 NW12      30.14F
WAUPACA        CLOUDY    68  50  52 NW10      30.13S
WAUTOMA        PTSUNNY   67  49  52 N8        30.14S
WISC RAPIDS    CLOUDY    68  52  56 NW12      30.16S
CAMP DOUGLAS   PTSUNNY   68  55  64 NW10      30.15F
$$

WIZ011>013-019>022-031-037>040-048>050-281700-
NORTHEAST WISCONSIN

CITY           SKY/WX    TMP DP  RH WIND       PRES   REMARKS
ANTIGO         SUNNY     65  53  64 NW12G17   30.12F
STURGEON BAY   SUNNY     59  43  55 N14G20    30.10S
GREEN BAY      CLOUDY    63  47  55 N9        30.11S
MANITOWOC      SUNNY     64  47  53 N15       30.09S
APPLETON       PTSUNNY   61  46  59 N8        30.13R
CLINTONVILLE   PTSUNNY   64  50  59 NW6       30.11F
OSHKOSH        CLOUDY    64  49  57 N10       30.12S
$$

WIZ032>034-041-042-053>061-281700-
SOUTHWEST WISCONSIN

CITY           SKY/WX    TMP DP  RH WIND       PRES   REMARKS
LA CROSSE      SUNNY     71  53  52 NW9       30.17S
SPARTA         SUNNY     69  50  51 N7        30.17F
VIROQUA        FAIR      68  50  53 N8        30.18S
BOSCOBEL       SUNNY     72  49  44 MISG      30.17S
PRAIRIE DU CHI SUNNY     69  46  43 N10       30.17S
PLATTEVILLE    FAIR      68  50  51 N13G21    30.17S
$$

WIZ056-057-062-063-064-067-068-281700-
SOUTH CENTRAL WISCONSIN

CITY           SKY/WX    TMP DP  RH WIND       PRES   REMARKS
BARABOO/DELLS  SUNNY     68  47  46 N8        30.15S
LONE ROCK      SUNNY     72  50  45 N13       30.16S
WATERTOWN      SUNNY     64  48  57 N13G22    30.12S
MADISON        MOSUNNY   68  49  50 N10G20    30.14S
MIDDLETON      FAIR      68  48  47 N10       30.15S
MONROE         SUNNY     64  46  52 N17G23    30.14R
JANESVILLE     MOSUNNY   66  45  45 N14G21    30.12R
$$

WIZ051-052-058>065-066-070>072-281700-
SOUTHEAST WISCONSIN

CITY           SKY/WX    TMP DP  RH WIND       PRES   REMARKS
MILWAUKEE      MOSUNNY   63  46  54 NE17      30.10R
WAUKESHA       NOT AVBL
MILWAUKEE/TIMM SUNNY     63  43  48 N17G24    30.10R
RACINE         SUNNY     62  47  57 N18G24    30.11R
BURLINGTON     SUNNY     64  44  49 N15G21    30.10R
KENOSHA        SUNNY     64  48  56 NE12G20   30.10R
FOND DU LAC    CLOUDY    64  48  56 NW12      30.12S
SHEBOYGAN      SUNNY     64  48  56 N13       30.09S
WEST BEND      SUNNY     63  45  51 N10G20    30.10S
JUNEAU         SUNNY     63  44  50 N12G17    30.13S
$$

LSZ147-162-281700-
LAKE SUPERIOR

STATION/POSITION TIME  TEMP    WIND        PRES    WAVE
                       AIR SEA DIR/SP/G            HT/PER
                 (UTC) (F)     (DEG/KT/KT) (MB)    (FT/S)
W MID LAKE BUOY  1550   47 44  260/  8/  8 1019.7F   1
PORT WING        1500   62     260/  7/  9 1021.3S
SAXON HARBOR     1500          320/  3/  7 1021.0
$$

LMZ867-665-643>646-281700-
LAKE MICHIGAN

STATION/POSITION TIME  TEMP    WIND        PRES    WAVE
                       AIR SEA DIR/SP/G            HT/PER
                 (UTC) (F)     (DEG/KT/KT) (MB)    (FT/S)
N MID LAKE BUOY  1550   54 52  340/  8/ 10 1017.9R   2/ 4
NORTHPORT PIER   1500   56     340/ 10/ 12 1019.0S
SISTER BAY       1440   59     350/ 14/ 18   N/A
KEWAUNEE LAKESHO 1500   60     350/  8/ 14 1019.5R
SHEBOYGAN LAKESH 1600   55      20/ 10/ 10 1019.3S
PORT WASHINGTON  1540   64     350/  8/ 17 1019.3R
ATWATER BUOY     1600   61      10/ 14     1019.9R
MILWAUKEE LAKESH 1500   58      30/ 14/ 18   N/A
S MID LAKE BUOY  1550   56 59  340/ 23/ 27 1017.5R   8/ 7
KENOSHA   LAKESH 1600   58      10/ 18/ 24 1018.6R
$$

TC  - TEMPERATURE IN CELSIUS
VSB - VISIBILITY IN STATUTE MILES
WCI - WIND CHILL INDEX
HX  - HEAT INDEX




USA.gov is the U.S. government's official web portal to all federal, state and local government web resources and services.